Orbital Elements at Epoch 2459000.5 (2020-May-31.0) TDB
Reference: JPL 15 (heliocentric ecliptic J2000)
Element | Value | Uncertainty (1-sigma) | Units |
e | .09383065165540516 | 6.0092e-08 | |
a | 2.571142119448292 | 2.9225e-08 | au |
q | 2.329890178881799 | 1.5151e-07 | au |
i | 14.48510248581062 | 6.374e-06 | deg |
node | .1079614205291537 | 2.3866e-05 | deg |
peri | 274.8510611679213 | 4.7561e-05 | deg |
M | 174.1746339134008 | 4.7456e-05 | deg |
tp | 2458271.932227405227 (2018-Jun-02.43222741) | 0.00018989 | TDB |
period | 1505.870242072823 4.12 | 2.5675e-05 7.029e-08 | d yr |
n | .2390644226453813 | 4.0761e-09 | deg/d |
Q | 2.812394060014785 | 3.1968e-08 | au |
|
| | Orbit Determination Parameters
Additional Information
|